Location: Centerville
(32.8776°N, 96.6203°W)
Time: 02:02:17
(UTC+00:00)

Cosmos 2227 Rocket - Pass Details

Date: 17 June 2021
Orbit: 838 x 845 km, 71.0° (Epoch: 27 July)

Event Time Altitude Azimuth Distance (km) Brightness Sun altitude
Rises 02:01:11 0° 333° (NNW) 3,400 6.5 -5.2°
Reaches altitude 10° 02:03:41 10° 329° (NNW) 2,463 5.8 -5.7°
Maximum altitude 02:09:08 52° 254° (WSW) 1,041 3.0 -6.6°
Drops below altitude 10° 02:14:35 10° 179° (S) 2,454 4.3 -7.6°
Sets 02:17:04 0° 174° (S) 3,386 5.0 -8.0°
